Weather History for Oujda, Morocco

Change the Weather History Date:

Wednesday, November 14, 2012

  Actual Average Record
Temperature  
Mean Temperature 58 °F -  
Max Temperature 64 °F 63 °F 78 °F (2002)
Min Temperature 51 °F 44 °F 39 °F (2008)
Degree Days  
Heating Degree Days 8    
Growing Degree Days 8 (Base 50)    
Moisture  
Dew Point 52 °F    
Average Humidity 85    
Maximum Humidity 100    
Minimum Humidity 56    
Precipitation  
Precipitation 0.00 in 0.05 in - ()
Sea Level Pressure  
Sea Level Pressure 30.02 in    
Wind  
Wind Speed 3 mph ()    
Max Wind Speed 9 mph    
Max Gust Speed -    
Visibility 5.9 miles    
Events      
Averages and records for this station are not official NWS values.
T = Trace of Precipitation, MM = Missing Value Source: Averaged Metar Reports

Daily Weather History Graph

Daily Weather History Graph

Search for Another Location

Airport:

Trip Planner

Search our weather history database for the weather conditions in past years. The results will help you decide how hot, cold, wet, or windy it might be!

Date:

Astronomy

Nov. 14, 2012 Rise Set
Actual Time 6:41 AM WET 5:02 PM WET
Civil Twilight 6:14 AM WET 5:29 PM WET
Nautical Twilight 5:43 AM WET 6:00 PM WET
Astronomical Twilight 5:13 AM WET 6:30 PM WET
Moon 7:11 AM WET (11/14) 5:39 PM WET (11/14)
Length of Visible Light 11h 15m
Length of Day
10h 21m
New Moon, 1% of the Moon is Illuminated
Nov 14
New Moon
Nov 20
First Quarter
Nov 28
Full
Dec 6
Last Quarter
Dec 13
New

Hourly Weather History & Observations

Time (WET) Temp. Dew Point Humidity Pressure Visibility Wind Dir Wind Speed Gust Speed Precip Events Conditions
12:00 AM 53 °F 53 °F 98% 30.01 in 4 mi SW 1.2 mph - -   Partly Cloudy
12:00 AM 53.6 °F 51.8 °F 94% 30.01 in 3.7 mi Variable 1.2 mph - N/A   Mostly Cloudy
2:00 AM 53.6 °F 53.6 °F 100% 30.01 in 3.7 mi SW 4.6 mph - N/A   Mostly Cloudy
3:00 AM 53 °F 53 °F 98% 30.00 in 4 mi NW 2.3 mph - -   Overcast
3:00 AM 53.6 °F 51.8 °F 94% 30.01 in 3.7 mi Variable 2.3 mph - N/A   Mostly Cloudy
5:00 AM 53.6 °F 51.8 °F 94% 30.01 in 3.7 mi South 3.5 mph - N/A   Mostly Cloudy
7:00 AM 53.6 °F 51.8 °F 94% 30.01 in 5.0 mi Variable 2.3 mph - N/A   Mostly Cloudy
8:00 AM 53.6 °F 53.6 °F 100% 30.01 in 6.2 mi WSW 5.8 mph - N/A   Mostly Cloudy
9:00 AM 56 °F 54 °F 92% 30.03 in 9 mi NNE 2.3 mph - -   Overcast
9:00 AM 55.4 °F 53.6 °F 94% 30.04 in 6.2 mi Variable 2.3 mph - N/A   Mostly Cloudy
10:00 AM 59.0 °F 53.6 °F 82% 30.04 in 6.2 mi SSW 3.5 mph - N/A   Mostly Cloudy
11:00 AM 62.6 °F 51.8 °F 68% 30.04 in 6.2 mi SSW 3.5 mph - N/A   Mostly Cloudy
12:00 PM 63 °F 51 °F 56% 29.99 in 9 mi East 4.6 mph - -   Partly Cloudy
12:00 PM 62.6 °F 51.8 °F 68% 30.01 in 6.2 mi East 4.6 mph - N/A   Scattered Clouds
2:00 PM 62.6 °F 53.6 °F 72% 30.01 in 6.2 mi ENE 9.2 mph - N/A   Scattered Clouds
3:00 PM 64 °F 54 °F 63% 29.97 in 9 mi East 5.8 mph - -   Partly Cloudy
3:00 PM 64.4 °F 53.6 °F 68% 30.01 in 6.2 mi East 5.8 mph - N/A   Scattered Clouds
4:00 PM 64.4 °F 53.6 °F 68% 30.01 in 6.2 mi Variable 2.3 mph - N/A   Partly Cloudy
5:00 PM 60.8 °F 53.6 °F 77% 30.01 in 6.2 mi ENE 4.6 mph - N/A   Partly Cloudy
7:00 PM 55.4 °F 51.8 °F 88% 30.04 in 6.2 mi East 4.6 mph - N/A   Partly Cloudy
8:00 PM 53.6 °F 51.8 °F 94% 30.04 in 6.2 mi ESE 1.2 mph - N/A   Partly Cloudy
9:00 PM 53.6 °F 50.0 °F 88% 30.04 in 6.2 mi SSW 2.3 mph - N/A   Partly Cloudy
10:00 PM 51.8 °F 50.0 °F 94% 30.04 in 6.2 mi SW 4.6 mph - N/A   Partly Cloudy
11:00 PM 51.8 °F 50.0 °F 94% 30.04 in 6.2 mi SW 4.6 mph - N/A   Partly Cloudy